星链-4280 (STARLINK-4280 )

导读

STARLINK-4280是美国太空探索技术公司(SpaceX)星链(Starlink)星座的成员,于2022年7月17日发射入轨。星链计划旨在构建全球低轨卫星互联网,为偏远地区、海洋和空中等场景提供高速低延迟网络服务,该卫星也承担着为全球用户提供宽带接入的通信任务,不过星链大规模部署也引发了太空碎片与轨道安全的争议。

Basic Information
目录编号:
53178
目录名称:
STARLINK-4280
国际标识:
2022-083AY
轨道中心:
EARTH
卫星名称:
星链-4280
卫星全名:
星链-4280 (STARLINK-4280 )
卫星状态:
在轨 (已飞行1518 天)
发射日期:
2022-07-17 UTC
国别 :
美国 (US)
星等 :
--
This satellite is enrolled in the Space Conjunction Data Service (SCDS) and the current flight risk assessment level is: No High Risk
Orbit Information
数据来源 国际轨道数据 AOE轨道数据
星历时间 2026-09-12T11:32:45+0800
11小时前
查看轨道信息
2026-09-06T09:00:00+0800
6天前
查看轨道信息
半长轴 6915.198km 6917.887km
偏心率 0.0001274 0.000098
轨道倾角 53.161° 53.158°
近地点辐角 117.955° 87.568°
升交点赤经 46.453° 73.912°
平近点角 242.158° 201.832°
近地点 536.18km 539.072km
远地点 537.942km 540.428km
周期 95.382分钟 95.438分钟
每日圈数 15.097181 15.08838
Detailed Information
固有亮度:
5
最大亮度:
2.5
卫星平台:
Starlink v1.5
覆盖范围:
全球
运营商:
太空探索技术公司
运营商所在国:
美国
制造商(研发单位):
太空探索技术公司
制造商所在国:
美国
使用方式:
暂无
Satellite Introduction
星链(Starlink)计划是由太空探索技术公司(SpaceX)提出的一个巨型低轨卫星互联网星座项目,计划在2019年至2024年间在太空搭建由约1.2万颗卫星组成的“星链”网络,其中1584颗将部署在地球上空550千米处的近地轨道,并从2020年开始工作。该卫星仍在工作。
2D Orbit Map
3D Orbit Map
Orbit Altitude Analysis Chart
Orbit Inclination Analysis Chart
Orbit Comprehensive Analysis Chart
View Comprehensive Chart
Conjunction Data List
Event ID Objects TCA Miss Dist (km) Collision Risk Probability Collision Risk Index (CRI) Action
CDM_260913-210505-317805-631921
2026-09-13T
21:05:03+0000
1.895 km
极远距离
3.211977E-6 低风险 0.45
CDM_260912-183505-317805-409921
2026-09-12T
18:35:59+0000
2.984 km
极远距离
1.202436E-6 低风险 0.37
Miss Distance Evolution Trend with All Objects
Collision Probability Evolution Trend with All Objects